Location: Stony Creek
(40.9500°S, 175.8500°E)
Time: 10:12:05
(UTC+00:00)

Cosmos 2084 - Pass Details

Date: 15 May 2026
Orbit: 544 x 552 km, 62.8° (Epoch: 9 June)

Event Time Altitude Azimuth Distance (km) Brightness Sun altitude
Exits shadow 18:23:57 - 289° (WNW) 1,903 5.6 -10.3°
Reaches altitude 10° 18:24:09 10° 287° (WNW) 1,830 5.5 -10.3°
Maximum altitude 18:27:46 29° 226° (SW) 1,035 4.2 -9.6°
Drops below altitude 10° 18:31:26 10° 164° (SSE) 1,846 6.0 -9.0°
Sets 18:33:53 0° 152° (SSE) 2,746 7.0 -8.5°
